Location: Balaclava NSW 2575, Australia
(34.4510°S, 150.4953°E)
Time: 00:23:18
(UTC+10:00)

A-11 Canister half - Pass Details

Date: 19 June 2021
Orbit: 1513 x 1687 km, 47.2° (Epoch: 28 July)

Event Time Altitude Azimuth Distance (km) Brightness Sun altitude
Rises 20:32:53 0° 243° (WSW) 4,772 12.2 -44.0°
Reaches altitude 10° 20:36:11 10° 236° (SW) 3,812 11.5 -44.7°
Enters shadow 20:41:47 33° 209° (SSW) 2,478 10.1 -45.8°
